START_TIME,STEP,MOV.,M6,t_acc.,M7,t_acc.,M19,t_acc.,H36,t_acc.
1986-01-24 00:00:04.630 ,4,1,0.,12.0,0.,12.0,0.,12.0,0.,12.0
1986-01-24 00:00:16.630 ,4,1,0.,12.0,0.,12.0,0.,12.0,0.,12.0
1986-01-24 00:00:28.630 ,4,0,0.,12.0,0.,12.0,0.,12.0,0.,12.0
1986-01-24 00:00:40.630 ,4,0,0.,12.0,0.,12.0,0.,12.0,0.,12.0
1986-01-24 00:00:52.630 ,3,1,0.,12.0,0.,12.0,0.,12.0,0.,12.0
1986-01-24 00:01:04.630 ,3,1,0.,12.0,0.,12.0,0.,12.0,0.,12.0
1986-01-24 00:01:16.630 ,3,0,0.,12.0,0.,12.0,0.,12.0,0.,12.0
1986-01-24 00:01:28.630 ,3,0,0.,12.0,0.,12.0,0.,12.0,0.,12.0
1986-01-24 00:01:40.630 ,2,1,0.,12.0,0.,12.0,0.,12.0,0.,12.0
1986-01-24 00:01:52.630 ,2,1,0.,12.0,0.,12.0,0.,12.0,0.,12.0
1986-01-24 00:02:04.630 ,2,0,0.,12.0,0.,12.0,0.,12.0,0.,12.0
1986-01-24 00:02:16.630 ,2,0,0.,12.0,0.,12.0,0.,12.0,0.,12.0
1986-01-24 00:02:28.630 ,1,1,0.,12.0,0.,12.0,0.,12.0,0.,12.0
1986-01-24 00:02:40.630 ,1,1,0.,12.0,0.,12.0,0.,12.0,0.,12.0
1986-01-24 00:02:52.630 ,1,0,0.,12.0,0.,12.0,0.,12.0,0.,12.0
1986-01-24 00:03:04.630 ,1,0,0.,12.0,0.,12.0,0.,12.0,0.,12.0
1986-01-24 00:03:16.630 ,0,1,0.,12.0,0.,12.0,0.,12.0,0.,12.0
1986-01-24 00:03:28.630 ,0,1,0.,12.0,0.,12.0,0.,12.0,0.,12.0
1986-01-24 00:03:40.630 ,0,0,0.,12.0,0.,12.0,0.,12.0,0.,12.0
1986-01-24 00:03:52.630 ,0,0,0.,12.0,0.,12.0,0.,12.0,0.,12.0
1986-01-24 00:04:04.630 ,0,1,0.,12.0,0.,12.0,0.,12.0,0.,12.0
1986-01-24 00:04:16.630 ,0,1,0.,12.0,0.,12.0,0.,12.0,0.,12.0
1986-01-24 00:04:28.630 ,0,0,0.,12.0,0.,12.0,0.,12.0,0.,12.0
1986-01-24 00:04:40.630 ,0,0,0.,12.0,0.,12.0,0.,12.0,0.,12.0
1986-01-24 00:04:52.630 ,1,1,0.,12.0,0.,12.0,0.,12.0,0.,12.0
1986-01-24 00:05:04.630 ,1,1,0.,12.0,0.,12.0,0.,12.0,0.,12.0
1986-01-24 00:05:16.630 ,1,0,0.,12.0,0.,12.0,0.,12.0,0.,12.0
1986-01-24 00:05:28.630 ,1,0,0.,12.0,0.,12.0,0.,12.0,0.,12.0
1986-01-24 00:05:40.630 ,2,1,0.,12.0,0.,12.0,0.,12.0,0.,12.0
1986-01-24 00:05:52.630 ,2,1,0.,12.0,0.,12.0,0.,12.0,0.,12.0
1986-01-24 00:06:04.630 ,2,0,0.,12.0,0.,12.0,0.,12.0,0.,12.0
1986-01-24 00:06:16.630 ,2,0,0.,12.0,0.,12.0,0.,12.0,0.,12.0
1986-01-24 00:06:28.630 ,3,1,0.,12.0,0.,12.0,0.,12.0,0.,12.0
1986-01-24 00:06:40.630 ,3,1,0.,12.0,0.,12.0,0.,12.0,0.,12.0
1986-01-24 00:06:52.630 ,3,0,0.,12.0,0.,12.0,0.,12.0,0.,12.0
1986-01-24 00:07:04.630 ,3,0,0.,12.0,0.,12.0,0.,12.0,0.,12.0
1986-01-24 00:07:16.630 ,4,1,0.,12.0,0.,12.0,0.,12.0,0.,12.0
1986-01-24 00:07:28.630 ,4,1,0.,12.0,0.,12.0,0.,12.0,0.,12.0
1986-01-24 00:07:40.630 ,4,0,0.,12.0,0.,12.0,0.,12.0,0.,12.0
1986-01-24 00:07:52.630 ,4,0,0.,12.0,0.,12.0,0.,12.0,0.,12.0
1986-01-24 00:08:04.630 ,5,1,0.,12.0,0.,12.0,0.,12.0,0.,12.0
1986-01-24 00:08:16.630 ,5,1,0.,12.0,0.,12.0,0.,12.0,0.,12.0
1986-01-24 00:08:28.630 ,5,0,0.,12.0,0.,12.0,0.,12.0,0.,12.0
1986-01-24 00:08:40.630 ,5,0,0.,12.0,0.,12.0,0.,12.0,0.,12.0
1986-01-24 00:08:52.630 ,6,1,0.,12.0,0.,12.0,0.,12.0,0.,12.0
1986-01-24 00:09:04.630 ,6,1,0.,12.0,0.,12.0,0.,12.0,0.,12.0
1986-01-24 00:09:16.630 ,6,0,0.,12.0,0.,12.0,0.,12.0,0.,12.0
1986-01-24 00:09:28.630 ,6,0,0.,12.0,0.,12.0,0.,12.0,0.,12.0
1986-01-24 00:09:40.630 ,7,1,0.,12.0,0.,12.0,0.,12.0,0.,12.0
1986-01-24 00:09:52.630 ,7,1,0.,12.0,0.,12.0,0.,12.0,0.,12.0
1986-01-24 00:10:04.630 ,7,0,0.,12.0,0.,12.0,0.,12.0,0.,12.0
1986-01-24 00:10:16.630 ,7,0,0.,12.0,0.,12.0,0.,12.0,0.,12.0
1986-01-24 00:10:28.630 ,7,1,0.,12.0,0.,12.0,0.,12.0,0.,12.0
1986-01-24 00:10:40.630 ,7,1,0.,12.0,0.,12.0,0.,12.0,0.,12.0
1986-01-24 00:10:52.630 ,7,0,0.,12.0,0.,12.0,0.,12.0,0.,12.0
1986-01-24 00:11:04.630 ,7,0,0.,12.0,0.,12.0,0.,12.0,0.,12.0
1986-01-24 00:11:16.630 ,6,1,0.,12.0,0.,12.0,0.,12.0,0.,12.0
1986-01-24 00:11:28.630 ,6,1,0.,12.0,0.,12.0,0.,12.0,0.,12.0
1986-01-24 00:11:40.630 ,6,0,0.,12.0,0.,12.0,0.,12.0,0.,12.0
1986-01-24 00:11:52.630 ,6,0,0.,12.0,0.,12.0,0.,12.0,0.,12.0
1986-01-24 00:12:04.630 ,5,1,0.,12.0,0.,12.0,0.,12.0,0.,12.0
1986-01-24 00:12:16.630 ,5,1,0.,12.0,0.,12.0,0.,12.0,0.,12.0
1986-01-24 00:12:28.630 ,5,0,0.,12.0,0.,12.0,0.,12.0,0.,12.0
1986-01-24 00:12:40.630 ,5,0,0.,12.0,0.,12.0,0.,12.0,0.,12.0
1986-01-24 00:12:52.630 ,4,1,0.,12.0,0.,12.0,0.,12.0,0.,12.0
1986-01-24 00:13:04.630 ,4,1,0.,12.0,0.,12.0,0.,12.0,0.,12.0
1986-01-24 00:13:16.630 ,4,0,0.,12.0,0.,12.0,0.,12.0,0.,12.0
1986-01-24 00:13:28.630 ,4,0,0.,12.0,0.,12.0,0.,12.0,0.,12.0
1986-01-24 00:13:40.630 ,3,1,0.,12.0,0.,12.0,0.,12.0,0.,12.0
1986-01-24 00:13:52.630 ,3,1,0.,12.0,0.,12.0,0.,12.0,0.,12.0
1986-01-24 00:14:04.630 ,3,0,0.,12.0,0.,12.0,0.,12.0,0.,12.0
1986-01-24 00:14:16.630 ,3,0,0.,12.0,0.,12.0,0.,12.0,0.,12.0
1986-01-24 00:14:28.630 ,2,1,0.,12.0,0.,12.0,0.,12.0,0.,12.0
1986-01-24 00:14:40.630 ,2,1,0.,12.0,0.,12.0,0.,12.0,0.,12.0
1986-01-24 00:14:52.630 ,2,0,0.,12.0,0.,12.0,0.,12.0,0.,12.0
1986-01-24 00:15:04.630 ,2,0,0.,12.0,0.,12.0,0.,12.0,0.,12.0
1986-01-24 00:15:16.630 ,1,1,0.,12.0,0.,12.0,0.,12.0,0.,12.0
1986-01-24 00:15:28.630 ,1,1,0.,12.0,0.,12.0,0.,12.0,0.,12.0
1986-01-24 00:15:40.630 ,1,0,0.,12.0,0.,12.0,0.,12.0,0.,12.0
1986-01-24 00:15:52.630 ,1,0,0.,12.0,0.,12.0,0.,12.0,0.,12.0
1986-01-24 00:16:04.630 ,0,1,0.,12.0,0.,12.0,0.,12.0,0.,12.0
1986-01-24 00:16:16.630 ,0,1,0.,12.0,0.,12.0,0.,12.0,0.,12.0
1986-01-24 00:16:28.630 ,0,0,0.,12.0,0.,12.0,0.,12.0,0.,12.0
1986-01-24 00:16:40.630 ,0,0,0.,12.0,0.,12.0,0.,12.0,0.,12.0
1986-01-24 00:16:52.630 ,0,1,0.,12.0,0.,12.0,0.,12.0,0.,12.0
1986-01-24 00:17:04.630 ,0,1,0.,12.0,0.,12.0,0.,12.0,0.,12.0
1986-01-24 00:17:16.630 ,0,0,0.,12.0,0.,12.0,0.,12.0,0.,12.0
1986-01-24 00:17:28.630 ,0,0,0.,12.0,0.,12.0,0.,12.0,0.,12.0
1986-01-24 00:17:40.630 ,1,1,0.,12.0,0.,12.0,0.,12.0,0.,12.0
1986-01-24 00:17:52.630 ,1,1,0.,12.0,0.,12.0,0.,12.0,0.,12.0
1986-01-24 00:18:04.630 ,1,0,0.,12.0,0.,12.0,0.,12.0,0.,12.0
1986-01-24 00:18:16.630 ,1,0,0.,12.0,0.,12.0,0.,12.0,0.,12.0
1986-01-24 00:18:28.630 ,2,1,0.,12.0,0.,12.0,0.,12.0,0.,12.0
1986-01-24 00:18:40.630 ,2,1,0.,12.0,0.,12.0,0.,12.0,0.,12.0
1986-01-24 00:18:52.630 ,2,0,0.,12.0,0.,12.0,0.,12.0,0.,12.0
1986-01-24 00:19:04.630 ,2,0,0.,12.0,0.,12.0,0.,12.0,0.,12.0
1986-01-24 00:19:16.630 ,3,1,0.,12.0,0.,12.0,0.,12.0,0.,12.0
1986-01-24 00:19:28.630 ,3,1,0.,12.0,0.,12.0,0.,12.0,0.,12.0
1986-01-24 00:19:40.630 ,3,0,0.,12.0,0.,12.0,0.,12.0,0.,12.0
1986-01-24 00:19:52.630 ,3,0,0.,12.0,0.,12.0,0.,12.0,0.,12.0
1986-01-24 00:20:04.630 ,4,1,0.,12.0,0.,12.0,0.,12.0,0.,12.0
1986-01-24 00:20:16.630 ,4,1,0.,12.0,0.,12.0,0.,12.0,0.,12.0
1986-01-24 00:20:28.630 ,4,0,0.,12.0,0.,12.0,0.,12.0,0.,12.0
1986-01-24 00:20:40.630 ,4,0,0.,12.0,0.,12.0,0.,12.0,0.,12.0
1986-01-24 00:20:52.630 ,5,1,0.,12.0,0.,12.0,0.,12.0,0.,12.0
1986-01-24 00:21:04.630 ,5,1,0.,12.0,0.,12.0,0.,12.0,0.,12.0
1986-01-24 00:21:16.630 ,5,0,0.,12.0,0.,12.0,0.,12.0,0.,12.0
1986-01-24 00:21:28.630 ,5,0,0.,12.0,0.,12.0,0.,12.0,0.,12.0
1986-01-24 00:21:40.630 ,6,1,0.,12.0,0.,12.0,0.,12.0,0.,12.0
1986-01-24 00:21:52.630 ,6,1,0.,12.0,0.,12.0,0.,12.0,0.,12.0
1986-01-24 00:22:04.630 ,6,0,0.,12.0,0.,12.0,0.,12.0,0.,12.0
1986-01-24 00:22:16.630 ,6,0,0.,12.0,0.,12.0,0.,12.0,0.,12.0
1986-01-24 00:22:28.630 ,7,1,0.,12.0,0.,12.0,0.,12.0,0.,12.0
1986-01-24 00:22:40.630 ,7,1,0.,12.0,0.,12.0,0.,12.0,0.,12.0
1986-01-24 00:22:52.630 ,7,0,0.,12.0,0.,12.0,0.,12.0,0.,12.0
1986-01-24 00:23:04.630 ,7,0,0.,12.0,0.,12.0,0.,12.0,0.,12.0
1986-01-24 00:23:16.630 ,7,1,0.,12.0,0.,12.0,0.,12.0,0.,12.0
1986-01-24 00:23:28.630 ,7,1,0.,12.0,0.,12.0,0.,12.0,0.,12.0
1986-01-24 00:23:40.630 ,7,0,0.,12.0,0.,12.0,0.,12.0,0.,12.0
1986-01-24 00:23:52.630 ,7,0,0.,12.0,0.,12.0,0.,12.0,0.,12.0
1986-01-24 00:24:04.630 ,6,1,0.,12.0,0.,12.0,0.,12.0,0.,12.0
1986-01-24 00:24:16.630 ,6,1,0.,12.0,0.,12.0,0.,12.0,0.,12.0
1986-01-24 00:24:28.630 ,6,0,0.,12.0,0.,12.0,0.,12.0,0.,12.0
1986-01-24 00:24:40.630 ,6,0,0.,12.0,0.,12.0,0.,12.0,0.,12.0
1986-01-24 00:24:52.630 ,5,1,0.,12.0,0.,12.0,0.,12.0,0.,12.0
1986-01-24 00:25:04.630 ,5,1,0.,12.0,0.,12.0,0.,12.0,0.,12.0
1986-01-24 00:25:16.630 ,5,0,0.,12.0,0.,12.0,0.,12.0,0.,12.0
1986-01-24 00:25:28.630 ,5,0,0.,12.0,0.,12.0,0.,12.0,0.,12.0
1986-01-24 00:25:40.630 ,4,1,0.,12.0,0.,12.0,0.,12.0,0.,12.0
1986-01-24 00:25:52.630 ,4,1,0.,12.0,0.,12.0,0.,12.0,0.,12.0
1986-01-24 00:26:04.630 ,4,0,0.,12.0,0.,12.0,0.,12.0,0.,12.0
1986-01-24 00:26:16.630 ,4,0,0.,12.0,0.,12.0,0.,12.0,0.,12.0
1986-01-24 00:26:28.630 ,3,1,0.,12.0,0.,12.0,0.,12.0,0.,12.0
1986-01-24 00:26:40.630 ,3,1,0.,12.0,0.,12.0,0.,12.0,0.,12.0
1986-01-24 00:26:52.630 ,3,0,0.,12.0,0.,12.0,0.,12.0,0.,12.0
1986-01-24 00:27:04.630 ,3,0,0.,12.0,0.,12.0,0.,12.0,0.,12.0
1986-01-24 00:27:16.630 ,2,1,0.,12.0,0.,12.0,0.,12.0,0.,12.0
1986-01-24 00:27:28.630 ,2,1,0.,12.0,0.,12.0,0.,12.0,0.,12.0
1986-01-24 00:27:40.630 ,2,0,0.,12.0,0.,12.0,0.,12.0,0.,12.0
1986-01-24 00:27:52.630 ,2,0,0.,12.0,0.,12.0,0.,12.0,0.,12.0
1986-01-24 00:28:04.630 ,1,1,0.,12.0,0.,12.0,0.,12.0,0.,12.0
1986-01-24 00:28:16.630 ,1,1,0.,12.0,0.,12.0,0.,12.0,0.,12.0
1986-01-24 00:28:28.630 ,1,0,0.,12.0,0.,12.0,0.,12.0,0.,12.0
1986-01-24 00:28:40.630 ,1,0,0.,12.0,0.,12.0,0.,12.0,0.,12.0
1986-01-24 00:28:52.630 ,0,1,0.,12.0,0.,12.0,0.,12.0,0.,12.0
1986-01-24 00:29:04.630 ,0,1,0.,12.0,0.,12.0,0.,12.0,0.,12.0
1986-01-24 00:29:16.630 ,0,0,0.,12.0,0.,12.0,0.,12.0,0.,12.0
1986-01-24 00:29:28.630 ,0,0,0.,12.0,0.,12.0,0.,12.0,0.,12.0
1986-01-24 00:29:40.630 ,0,1,0.,12.0,0.,12.0,0.,12.0,0.,12.0
1986-01-24 00:29:52.630 ,0,1,0.,12.0,0.,12.0,0.,12.0,0.,12.0
1986-01-24 00:30:04.630 ,0,0,0.,12.0,0.,12.0,0.,12.0,0.,12.0
1986-01-24 00:30:16.630 ,0,0,0.,12.0,0.,12.0,0.,12.0,0.,12.0
1986-01-24 00:30:28.630 ,1,1,0.,12.0,0.,12.0,0.,12.0,0.,12.0
1986-01-24 00:30:40.630 ,1,1,0.,12.0,0.,12.0,0.,12.0,0.,12.0
1986-01-24 00:30:52.630 ,1,0,0.,12.0,0.,12.0,0.,12.0,0.,12.0
1986-01-24 00:31:04.630 ,1,0,0.,12.0,0.,12.0,0.,12.0,0.,12.0
1986-01-24 00:31:16.630 ,2,1,0.,12.0,0.,12.0,0.,12.0,0.,12.0
1986-01-24 00:31:28.630 ,2,1,0.,12.0,0.,12.0,0.,12.0,0.,12.0
1986-01-24 00:31:40.630 ,2,0,0.,12.0,0.,12.0,0.,12.0,0.,12.0
1986-01-24 00:31:52.630 ,2,0,0.,12.0,0.,12.0,0.,12.0,0.,12.0
1986-01-24 00:32:04.630 ,3,1,0.,12.0,0.,12.0,0.,12.0,0.,12.0
1986-01-24 00:32:16.630 ,3,1,0.,12.0,0.,12.0,0.,12.0,0.,12.0
1986-01-24 00:32:28.630 ,3,0,0.,12.0,0.,12.0,0.,12.0,0.,12.0
1986-01-24 00:32:40.630 ,3,0,0.,12.0,0.,12.0,0.,12.0,0.,12.0
1986-01-24 00:32:52.630 ,4,1,0.,12.0,0.,12.0,0.,12.0,0.,12.0
1986-01-24 00:33:04.630 ,4,1,0.,12.0,0.,12.0,0.,12.0,0.,12.0
1986-01-24 00:33:16.630 ,4,0,0.,12.0,0.,12.0,0.,12.0,0.,12.0
1986-01-24 00:33:28.630 ,4,0,0.,12.0,0.,12.0,0.,12.0,0.,12.0
1986-01-24 00:33:40.630 ,5,1,0.,12.0,0.,12.0,0.,12.0,0.,12.0
1986-01-24 00:33:52.630 ,5,1,0.,12.0,0.,12.0,0.,12.0,0.,12.0
1986-01-24 00:34:04.630 ,5,0,0.,12.0,0.,12.0,0.,12.0,0.,12.0
1986-01-24 00:34:16.630 ,5,0,0.,12.0,0.,12.0,0.,12.0,0.,12.0
1986-01-24 00:34:28.630 ,6,1,0.,12.0,0.,12.0,0.,12.0,0.,12.0
1986-01-24 00:34:40.630 ,6,1,0.,12.0,0.,12.0,0.,12.0,0.,12.0
1986-01-24 00:34:52.630 ,6,0,0.,12.0,0.,12.0,0.,12.0,0.,12.0
1986-01-24 00:35:04.630 ,6,0,0.,12.0,0.,12.0,0.,12.0,0.,12.0
1986-01-24 00:35:16.630 ,7,1,0.,12.0,0.,12.0,0.,12.0,0.,12.0
1986-01-24 00:35:28.630 ,7,1,0.,12.0,0.,12.0,0.,12.0,0.,12.0
1986-01-24 00:35:40.630 ,7,0,0.,12.0,0.,12.0,0.,12.0,0.,12.0
1986-01-24 00:35:52.630 ,7,0,0.,12.0,0.,12.0,0.,12.0,0.,12.0
1986-01-24 00:36:04.630 ,7,1,0.,12.0,0.,12.0,0.,12.0,0.,12.0
1986-01-24 00:36:16.630 ,7,1,0.,12.0,0.,12.0,0.,12.0,0.,12.0
1986-01-24 00:36:28.630 ,7,0,0.,12.0,0.,12.0,0.,12.0,0.,12.0
1986-01-24 00:36:40.630 ,7,0,0.,12.0,0.,12.0,0.,12.0,0.,12.0
1986-01-24 00:36:52.630 ,6,1,0.,12.0,0.,12.0,0.,12.0,0.,12.0
1986-01-24 00:37:04.630 ,6,1,0.,12.0,0.,12.0,0.,12.0,0.,12.0
1986-01-24 00:37:16.630 ,6,0,0.,12.0,0.,12.0,0.,12.0,0.,12.0
1986-01-24 00:37:28.630 ,6,0,0.,12.0,0.,12.0,0.,12.0,0.,12.0
1986-01-24 00:37:40.630 ,5,1,0.,12.0,0.,12.0,0.,12.0,0.,12.0
1986-01-24 00:37:52.630 ,5,1,0.,12.0,0.,12.0,0.,12.0,0.,12.0
1986-01-24 00:38:04.630 ,5,0,0.,12.0,0.,12.0,0.,12.0,0.,12.0
1986-01-24 00:38:16.630 ,5,0,0.,12.0,0.,12.0,0.,12.0,0.,12.0
1986-01-24 00:38:28.630 ,4,1,0.,12.0,0.,12.0,0.,12.0,0.,12.0
1986-01-24 00:38:40.630 ,4,1,0.,12.0,0.,12.0,0.,12.0,0.,12.0
1986-01-24 00:38:52.630 ,4,0,0.,12.0,0.,12.0,0.,12.0,0.,12.0
1986-01-24 00:39:04.630 ,4,0,0.,12.0,0.,12.0,0.,12.0,0.,12.0
1986-01-24 00:41:32.230 ,2,0,,0,,0,,0,,0
1986-01-24 00:41:44.230 ,2,0,,0,,0,,0,,0
1986-01-24 00:41:43.630 ,2,0,0.,12.0,0.,12.0,0.,12.0,0.,12.0
1986-01-24 00:41:55.630 ,2,0,,0,,0,,0,,0
1986-01-24 00:42:04.630 ,1,0,0.,12.0,0.,12.0,0.,12.0,0.,12.0
1986-01-24 00:42:16.630 ,1,0,0.,12.0,0.,12.0,0.,12.0,0.,12.0
1986-01-24 00:42:28.630 ,0,1,0.,12.0,0.,12.0,0.,12.0,0.,12.0
1986-01-24 00:42:40.630 ,0,1,0.,12.0,0.,12.0,0.,12.0,0.,12.0
1986-01-24 00:42:52.630 ,0,0,0.,12.0,0.,12.0,0.,12.0,0.,12.0
1986-01-24 00:43:04.630 ,0,0,0.,12.0,0.,12.0,0.,12.0,0.,12.0
1986-01-24 00:43:16.630 ,1,1,0.,12.0,0.,12.0,0.,12.0,0.,12.0
1986-01-24 00:43:28.630 ,1,1,0.,12.0,0.,12.0,0.,12.0,0.,12.0
1986-01-24 00:43:40.630 ,1,0,0.,12.0,0.,12.0,0.,12.0,0.,12.0
1986-01-24 00:43:52.630 ,1,0,0.,12.0,0.,12.0,0.,12.0,0.,12.0
1986-01-24 00:44:04.630 ,2,1,0.,12.0,0.,12.0,0.,12.0,0.,12.0
1986-01-24 00:44:16.630 ,2,1,0.,12.0,0.,12.0,0.,12.0,0.,12.0
1986-01-24 00:44:28.630 ,2,0,0.,12.0,0.,12.0,0.,12.0,0.,12.0
1986-01-24 00:44:40.630 ,2,0,0.,12.0,0.,12.0,0.,12.0,0.,12.0
1986-01-24 00:44:52.630 ,3,1,0.,12.0,0.,12.0,0.,12.0,0.,12.0
1986-01-24 00:45:04.630 ,3,1,0.,12.0,0.,12.0,0.,12.0,0.,12.0
1986-01-24 00:45:16.630 ,3,0,0.,12.0,0.,12.0,0.,12.0,0.,12.0
1986-01-24 00:45:28.630 ,3,0,0.,12.0,0.,12.0,0.,12.0,0.,12.0
1986-01-24 00:45:40.630 ,4,1,0.,12.0,0.,12.0,0.,12.0,0.,12.0
1986-01-24 00:45:52.630 ,4,1,0.,12.0,0.,12.0,0.,12.0,0.,12.0
1986-01-24 00:46:04.630 ,4,0,0.,12.0,0.,12.0,0.,12.0,0.,12.0
1986-01-24 00:46:16.630 ,4,0,0.,12.0,0.,12.0,0.,12.0,0.,12.0
1986-01-24 00:46:28.630 ,5,1,0.,12.0,0.,12.0,0.,12.0,0.,12.0
1986-01-24 00:46:40.630 ,5,1,0.,12.0,0.,12.0,0.,12.0,0.,12.0
1986-01-24 00:46:52.630 ,5,0,0.,12.0,0.,12.0,0.,12.0,0.,12.0
1986-01-24 00:47:04.630 ,5,0,0.,12.0,0.,12.0,0.,12.0,0.,12.0
1986-01-24 00:47:16.630 ,6,1,0.,12.0,0.,12.0,0.,12.0,0.,12.0
1986-01-24 00:47:28.630 ,6,1,0.,12.0,0.,12.0,0.,12.0,0.,12.0
1986-01-24 00:47:40.630 ,6,0,0.,12.0,0.,12.0,0.,12.0,0.,12.0
1986-01-24 00:47:52.630 ,6,0,0.,12.0,0.,12.0,0.,12.0,0.,12.0
1986-01-24 00:48:04.630 ,7,1,0.,12.0,0.,12.0,0.,12.0,0.,12.0
1986-01-24 00:48:16.630 ,7,1,0.,12.0,0.,12.0,0.,12.0,0.,12.0
1986-01-24 00:48:28.630 ,7,0,0.,12.0,0.,12.0,0.,12.0,0.,12.0
1986-01-24 00:48:40.630 ,7,0,0.,12.0,0.,12.0,0.,12.0,0.,12.0
1986-01-24 00:48:52.630 ,7,1,0.,12.0,0.,12.0,0.,12.0,0.,12.0
1986-01-24 00:49:04.630 ,7,1,0.,12.0,0.,12.0,0.,12.0,0.,12.0
1986-01-24 00:49:16.630 ,7,0,0.,12.0,0.,12.0,0.,12.0,0.,12.0
1986-01-24 00:49:28.630 ,7,0,0.,12.0,0.,12.0,0.,12.0,0.,12.0
1986-01-24 00:49:40.630 ,6,1,0.,12.0,0.,12.0,0.,12.0,0.,12.0
1986-01-24 00:49:52.630 ,6,1,0.,12.0,0.,12.0,0.,12.0,0.,12.0
1986-01-24 00:50:04.630 ,6,0,0.,12.0,0.,12.0,0.,12.0,0.,12.0
1986-01-24 00:50:16.630 ,6,0,0.,12.0,0.,12.0,0.,12.0,0.,12.0
1986-01-24 00:50:28.630 ,5,1,0.,12.0,0.,12.0,0.,12.0,0.,12.0
1986-01-24 00:50:40.630 ,5,1,0.,12.0,0.,12.0,0.,12.0,0.,12.0
1986-01-24 00:50:52.630 ,5,0,0.,12.0,0.,12.0,0.,12.0,0.,12.0
1986-01-24 00:51:04.630 ,5,0,0.,12.0,0.,12.0,0.,12.0,0.,12.0
1986-01-24 00:51:16.630 ,4,1,0.,12.0,0.,12.0,0.,12.0,0.,12.0
1986-01-24 00:51:28.630 ,4,1,0.,12.0,0.,12.0,0.,12.0,0.,12.0
1986-01-24 00:51:40.630 ,4,0,0.,12.0,0.,12.0,0.,12.0,0.,12.0
1986-01-24 00:51:52.630 ,4,0,0.,12.0,0.,12.0,0.,12.0,0.,12.0
1986-01-24 00:52:04.630 ,3,1,0.,12.0,0.,12.0,0.,12.0,0.,12.0
1986-01-24 00:52:16.630 ,3,1,0.,12.0,0.,12.0,0.,12.0,0.,12.0
1986-01-24 00:52:28.630 ,3,0,0.,12.0,0.,12.0,0.,12.0,0.,12.0
1986-01-24 00:52:40.630 ,3,0,0.,12.0,0.,12.0,0.,12.0,0.,12.0
1986-01-24 00:52:52.630 ,2,1,0.,12.0,0.,12.0,0.,12.0,0.,12.0
1986-01-24 00:53:04.630 ,2,1,0.,12.0,0.,12.0,0.,12.0,0.,12.0
1986-01-24 00:53:16.630 ,2,0,0.,12.0,0.,12.0,0.,12.0,0.,12.0
1986-01-24 00:53:28.630 ,2,0,0.,12.0,0.,12.0,0.,12.0,0.,12.0
1986-01-24 00:53:40.630 ,1,1,0.,12.0,0.,12.0,0.,12.0,0.,12.0
1986-01-24 00:53:52.630 ,1,1,0.,12.0,0.,12.0,0.,12.0,0.,12.0
1986-01-24 00:54:04.630 ,1,0,0.,12.0,0.,12.0,0.,12.0,0.,12.0
1986-01-24 00:54:16.630 ,1,0,0.,12.0,0.,12.0,0.,12.0,0.,12.0
1986-01-24 00:54:28.630 ,0,1,0.,12.0,0.,12.0,0.,12.0,0.,12.0
1986-01-24 00:54:40.630 ,0,1,0.,12.0,0.,12.0,0.,12.0,0.,12.0
1986-01-24 00:54:52.630 ,0,0,0.,12.0,0.,12.0,0.,12.0,0.,12.0
1986-01-24 00:55:04.630 ,0,0,0.,12.0,0.,12.0,0.,12.0,0.,12.0
1986-01-24 00:55:16.630 ,0,1,0.,12.0,0.,12.0,0.,12.0,0.,12.0
1986-01-24 00:55:28.630 ,0,1,0.,12.0,0.,12.0,0.,12.0,0.,12.0
1986-01-24 00:55:40.630 ,0,0,0.,12.0,0.,12.0,0.,12.0,0.,12.0
1986-01-24 00:55:52.630 ,0,0,0.,12.0,0.,12.0,0.,12.0,0.,12.0
1986-01-24 00:56:04.630 ,1,1,0.,12.0,0.,12.0,0.,12.0,0.,12.0
1986-01-24 00:56:16.630 ,1,1,0.,12.0,0.,12.0,0.,12.0,0.,12.0
1986-01-24 00:56:28.630 ,1,0,0.,12.0,0.,12.0,0.,12.0,0.,12.0
1986-01-24 00:56:40.630 ,1,0,0.,12.0,0.,12.0,0.,12.0,0.,12.0
1986-01-24 00:56:52.630 ,2,1,0.,12.0,0.,12.0,0.,12.0,0.,12.0
1986-01-24 00:57:04.630 ,2,1,0.,12.0,0.,12.0,0.,12.0,0.,12.0
1986-01-24 00:57:16.630 ,2,0,0.,12.0,0.,12.0,0.,12.0,0.,12.0
1986-01-24 00:57:28.630 ,2,0,0.,12.0,0.,12.0,0.,12.0,0.,12.0
1986-01-24 00:57:40.630 ,3,1,0.,12.0,0.,12.0,0.,12.0,0.,12.0
1986-01-24 00:57:52.630 ,3,1,0.,12.0,0.,12.0,0.,12.0,0.,12.0
1986-01-24 00:58:04.630 ,3,0,0.,12.0,0.,12.0,0.,12.0,0.,12.0
1986-01-24 00:58:16.630 ,3,0,0.,12.0,0.,12.0,0.,12.0,0.,12.0
1986-01-24 00:58:28.630 ,4,1,0.,12.0,0.,12.0,0.,12.0,0.,12.0
1986-01-24 00:58:40.630 ,4,1,0.,12.0,0.,12.0,0.,12.0,0.,12.0
1986-01-24 00:58:52.630 ,4,0,0.,12.0,0.,12.0,0.,12.0,0.,12.0
1986-01-24 00:59:04.630 ,4,0,0.,12.0,0.,12.0,0.,12.0,0.,12.0
1986-01-24 00:59:16.630 ,5,1,0.,12.0,0.,12.0,0.,12.0,0.,12.0
1986-01-24 00:59:28.630 ,5,1,0.,12.0,0.,12.0,0.,12.0,0.,12.0
1986-01-24 00:59:40.630 ,5,0,0.,12.0,0.,12.0,0.,12.0,0.,12.0
1986-01-24 00:59:52.630 ,5,0,0.,12.0,0.,12.0,0.,12.0,0.,12.0
1986-01-24 01:00:04.630 ,6,1,0.,12.0,0.,12.0,0.,12.0,0.,12.0
1986-01-24 01:00:16.630 ,6,1,0.,12.0,0.,12.0,0.,12.0,0.,12.0
1986-01-24 01:00:28.630 ,6,0,0.,12.0,0.,12.0,0.,12.0,0.,12.0
1986-01-24 01:00:40.630 ,6,0,0.,12.0,0.,12.0,0.,12.0,0.,12.0
1986-01-24 01:00:52.630 ,7,1,0.,12.0,0.,12.0,0.,12.0,0.,12.0
1986-01-24 01:01:04.630 ,7,1,0.,12.0,0.,12.0,0.,12.0,0.,12.0
1986-01-24 01:01:16.630 ,7,0,0.,12.0,0.,12.0,0.,12.0,0.,12.0
1986-01-24 01:01:28.630 ,7,0,0.,12.0,0.,12.0,0.,12.0,0.,12.0
1986-01-24 01:01:40.630 ,7,1,0.,12.0,0.,12.0,0.,12.0,0.,12.0
1986-01-24 01:01:52.630 ,7,1,0.,12.0,0.,12.0,0.,12.0,0.,12.0
1986-01-24 01:02:04.630 ,7,0,0.,12.0,0.,12.0,0.,12.0,0.,12.0
1986-01-24 01:02:16.630 ,7,0,0.,12.0,0.,12.0,0.,12.0,0.,12.0
1986-01-24 01:02:28.630 ,6,1,0.,12.0,0.,12.0,0.,12.0,0.,12.0
1986-01-24 01:02:40.630 ,6,1,0.,12.0,0.,12.0,0.,12.0,0.,12.0
1986-01-24 01:02:52.630 ,6,0,0.,12.0,0.,12.0,0.,12.0,0.,12.0
1986-01-24 01:03:04.630 ,6,0,0.,12.0,0.,12.0,0.,12.0,0.,12.0
1986-01-24 01:03:16.630 ,5,1,0.,12.0,0.,12.0,0.,12.0,0.,12.0
1986-01-24 01:03:28.630 ,5,1,0.,12.0,0.,12.0,0.,12.0,0.,12.0
1986-01-24 01:03:40.630 ,5,0,0.,12.0,0.,12.0,0.,12.0,0.,12.0
1986-01-24 01:03:52.630 ,5,0,0.,12.0,0.,12.0,0.,12.0,0.,12.0
1986-01-24 01:04:04.630 ,4,1,0.,12.0,0.,12.0,0.,12.0,0.,12.0
1986-01-24 01:04:16.630 ,4,1,0.,12.0,0.,12.0,0.,12.0,0.,12.0
1986-01-24 01:04:28.630 ,4,0,0.,12.0,0.,12.0,0.,12.0,0.,12.0
1986-01-24 01:04:40.630 ,4,0,0.,12.0,0.,12.0,0.,12.0,0.,12.0
1986-01-24 01:04:52.630 ,3,1,0.,12.0,0.,12.0,0.,12.0,0.,12.0
1986-01-24 01:05:04.630 ,3,1,0.,12.0,0.,12.0,0.,12.0,0.,12.0
1986-01-24 01:05:16.630 ,3,0,0.,12.0,0.,12.0,0.,12.0,0.,12.0
1986-01-24 01:05:28.630 ,3,0,0.,12.0,0.,12.0,0.,12.0,0.,12.0
1986-01-24 01:05:40.630 ,2,1,0.,12.0,0.,12.0,0.,12.0,0.,12.0
1986-01-24 01:05:52.630 ,2,1,0.,12.0,0.,12.0,0.,12.0,0.,12.0
1986-01-24 01:06:04.630 ,2,0,0.,12.0,0.,12.0,0.,12.0,0.,12.0
1986-01-24 01:06:16.630 ,2,0,0.,12.0,0.,12.0,0.,12.0,0.,12.0
1986-01-24 01:06:28.630 ,1,1,0.,12.0,0.,12.0,0.,12.0,0.,12.0
1986-01-24 01:06:40.630 ,1,1,0.,12.0,0.,12.0,0.,12.0,0.,12.0
1986-01-24 01:06:52.630 ,1,0,0.,12.0,0.,12.0,0.,12.0,0.,12.0
1986-01-24 01:07:04.630 ,1,0,0.,12.0,0.,12.0,0.,12.0,0.,12.0
1986-01-24 01:07:16.630 ,0,1,0.,12.0,0.,12.0,0.,12.0,0.,12.0
1986-01-24 01:07:28.630 ,0,1,0.,12.0,0.,12.0,0.,12.0,0.,12.0
1986-01-24 01:07:40.630 ,0,0,0.,12.0,0.,12.0,0.,12.0,0.,12.0
1986-01-24 01:07:52.630 ,0,0,0.,12.0,0.,12.0,0.,12.0,0.,12.0
1986-01-24 01:08:04.630 ,0,1,0.,12.0,0.,12.0,0.,12.0,0.,12.0
1986-01-24 01:08:16.630 ,0,1,0.,12.0,0.,12.0,0.,12.0,0.,12.0
1986-01-24 01:08:28.630 ,0,0,0.,12.0,0.,12.0,0.,12.0,0.,12.0
1986-01-24 01:08:40.630 ,0,0,0.,12.0,0.,12.0,0.,12.0,0.,12.0
1986-01-24 01:08:52.630 ,1,1,0.,12.0,0.,12.0,0.,12.0,0.,12.0
1986-01-24 01:09:04.630 ,1,1,0.,12.0,0.,12.0,0.,12.0,0.,12.0
1986-01-24 01:09:16.630 ,1,0,0.,12.0,0.,12.0,0.,12.0,0.,12.0
1986-01-24 01:09:28.630 ,1,0,0.,12.0,0.,12.0,0.,12.0,0.,12.0
1986-01-24 01:09:40.630 ,2,1,0.,12.0,0.,12.0,0.,12.0,0.,12.0
1986-01-24 01:09:52.630 ,2,1,0.,12.0,0.,12.0,0.,12.0,0.,12.0
1986-01-24 01:10:04.630 ,2,0,0.,12.0,0.,12.0,0.,12.0,0.,12.0
1986-01-24 01:10:16.630 ,2,0,0.,12.0,0.,12.0,0.,12.0,0.,12.0
1986-01-24 01:10:28.630 ,3,1,0.,12.0,0.,12.0,0.,12.0,0.,12.0
1986-01-24 01:10:40.630 ,3,1,0.,12.0,0.,12.0,0.,12.0,0.,12.0
1986-01-24 01:10:52.630 ,3,0,0.,12.0,0.,12.0,0.,12.0,0.,12.0
1986-01-24 01:11:04.630 ,3,0,0.,12.0,0.,12.0,0.,12.0,0.,12.0
1986-01-24 01:11:16.630 ,4,1,0.,12.0,0.,12.0,0.,12.0,0.,12.0
1986-01-24 01:11:28.630 ,4,1,0.,12.0,0.,12.0,0.,12.0,0.,12.0
1986-01-24 01:11:40.630 ,4,0,0.,12.0,0.,12.0,0.,12.0,0.,12.0
1986-01-24 01:11:52.630 ,4,0,0.,12.0,0.,12.0,0.,12.0,0.,12.0
1986-01-24 01:12:04.630 ,5,1,0.,12.0,0.,12.0,0.,12.0,0.,12.0
1986-01-24 01:12:16.630 ,5,1,0.,12.0,0.,12.0,0.,12.0,0.,12.0
1986-01-24 01:12:28.630 ,5,0,0.,12.0,0.,12.0,0.,12.0,0.,12.0
1986-01-24 01:12:40.630 ,5,0,0.,12.0,0.,12.0,0.,12.0,0.,12.0
1986-01-24 01:12:52.630 ,6,1,0.,12.0,0.,12.0,0.,12.0,0.,12.0
1986-01-24 01:13:04.630 ,6,1,0.,12.0,0.,12.0,0.,12.0,0.,12.0
1986-01-24 01:13:16.630 ,6,0,0.,12.0,0.,12.0,0.,12.0,0.,12.0
1986-01-24 01:13:28.630 ,6,0,0.,12.0,0.,12.0,0.,12.0,0.,12.0
1986-01-24 01:13:40.630 ,7,1,0.,12.0,0.,12.0,0.,12.0,0.,12.0
1986-01-24 01:13:52.630 ,7,1,0.,12.0,0.,12.0,0.,12.0,0.,12.0
1986-01-24 01:14:04.630 ,7,0,0.,12.0,0.,12.0,0.,12.0,0.,12.0
1986-01-24 01:14:16.630 ,7,0,0.,12.0,0.,12.0,0.,12.0,0.,12.0
1986-01-24 01:14:28.630 ,7,1,0.,12.0,0.,12.0,0.,12.0,0.,12.0
1986-01-24 01:14:40.630 ,7,1,0.,12.0,0.,12.0,0.,12.0,0.,12.0
1986-01-24 01:14:52.630 ,7,0,0.,12.0,0.,12.0,0.,12.0,0.,12.0
1986-01-24 01:15:04.630 ,7,0,0.,12.0,0.,12.0,0.,12.0,0.,12.0
1986-01-24 01:15:16.630 ,6,1,0.,12.0,0.,12.0,0.,12.0,0.,12.0
1986-01-24 01:15:28.630 ,6,1,0.,12.0,0.,12.0,0.,12.0,0.,12.0
1986-01-24 01:15:40.630 ,6,0,0.,12.0,0.,12.0,0.,12.0,0.,12.0
1986-01-24 01:15:52.630 ,6,0,0.,12.0,0.,12.0,0.,12.0,0.,12.0
1986-01-24 01:16:04.630 ,5,1,0.,12.0,0.,12.0,0.,12.0,0.,12.0
1986-01-24 01:16:16.630 ,5,1,0.,12.0,0.,12.0,0.,12.0,0.,12.0
1986-01-24 01:16:28.630 ,5,0,0.,12.0,0.,12.0,0.,12.0,0.,12.0
1986-01-24 01:16:40.630 ,5,0,0.,12.0,0.,12.0,0.,12.0,0.,12.0
1986-01-24 01:16:52.630 ,4,1,0.,12.0,0.,12.0,0.,12.0,0.,12.0
1986-01-24 01:17:04.630 ,4,1,0.,12.0,0.,12.0,0.,12.0,0.,12.0
1986-01-24 01:17:16.630 ,4,0,0.,12.0,0.,12.0,0.,12.0,0.,12.0
1986-01-24 01:17:28.630 ,4,0,0.,12.0,0.,12.0,0.,12.0,0.,12.0
1986-01-24 01:20:55.030 ,0,1,0.,12.0,0.,12.0,0.,12.0,0.,12.0
1986-01-24 01:21:07.030 ,0,1,0.,12.0,0.,12.0,0.,12.0,0.,12.0
1986-01-24 01:21:26.230 ,0,0,,0,,0,,0,,0
1986-01-24 01:21:38.230 ,0,0,0.,12.0,0.,12.0,0.,12.0,0.,12.0
1986-01-24 01:21:40.630 ,1,1,0.,12.0,0.,12.0,0.,12.0,0.,12.0
1986-01-24 01:21:52.630 ,1,1,0.,12.0,0.,12.0,0.,12.0,0.,12.0
1986-01-24 01:22:04.630 ,1,0,0.,12.0,0.,12.0,0.,12.0,0.,12.0
1986-01-24 01:22:16.630 ,1,0,0.,12.0,0.,12.0,0.,12.0,0.,12.0
1986-01-24 01:22:28.630 ,2,1,0.,12.0,0.,12.0,0.,12.0,0.,12.0